| time (UTC) | temp F | wind direction | speed MPH | gust MPH | rain 1hr in | rain 24hr in | rain mn in | humidity % | barometer mb |
| 20260505022333 | 50 | 250 | 5.0 | 11.0 | 0.04 | 0.14 | 0.14 | 84 | 821.5 |
| 20260505021802 | 50 | 244 | 6.0 | 10.0 | 0.02 | 0.12 | 0.13 | 82 | 821.4 |
| 20260505021242 | 51 | 294 | 7.0 | 10.0 | 0.01 | 0.11 | 0.11 | 79 | 821.3 |
| 20260505020711 | 51 | 301 | 8.0 | 13.0 | 0.01 | 0.11 | 0.11 | 76 | 821.3 |
| 20260505020139 | 52 | 317 | 8.0 | 14.0 | 0.00 | 0.10 | 0.10 | 74 | 821.3 |
| 20260505015636 | 52 | 316 | 7.0 | 14.0 | 0.00 | 0.10 | 0.10 | 73 | 821.2 |
| 20260505015355 | 51 | 339 | 7.0 | 11.0 | 0.00 | 0.10 | 0.10 | 73 | 821.1 |
| 20260505014634 | 51 | 322 | 8.0 | 14.0 | 0.00 | 0.10 | 0.10 | 74 | 821.0 |
| 20260505014126 | 51 | 321 | 9.0 | 14.0 | 0.00 | 0.10 | 0.10 | 75 | 821.0 |
| 20260505013626 | 51 | 311 | 10.0 | 16.0 | 0.00 | 0.10 | 0.10 | 76 | 821.0 |
| 20260505013126 | 50 | 355 | 10.0 | 18.0 | 0.00 | 0.10 | 0.10 | 76 | 820.9 |
| 20260505012626 | 50 | 304 | 11.0 | 18.0 | 0.00 | 0.10 | 0.10 | 77 | 820.9 |
| 20260505012128 | 50 | 309 | 11.0 | 20.0 | 0.00 | 0.10 | 0.10 | 77 | 820.9 |
| 20260505011625 | 50 | 323 | 13.0 | 20.0 | 0.00 | 0.10 | 0.10 | 78 | 820.9 |
| 20260505011126 | 51 | 5 | 13.0 | 21.0 | 0.00 | 0.10 | 0.10 | 77 | 820.7 |
| 20260505010626 | 51 | 323 | 14.0 | 21.0 | 0.00 | 0.10 | 0.10 | 76 | 820.8 |
| 20260505010127 | 51 | 329 | 13.0 | 20.0 | 0.00 | 0.10 | 0.10 | 75 | 821.0 |
| 20260505005625 | 52 | 313 | 15.0 | 24.0 | 0.00 | 0.10 | 0.10 | 73 | 821.0 |
| 20260505005122 | 53 | 305 | 15.0 | 24.0 | 0.00 | 0.10 | 0.10 | 72 | 821.0 |
| 20260505004622 | 54 | 330 | 12.0 | 22.0 | 0.00 | 0.10 | 0.10 | 70 | 820.9 |
| 20260505004123 | 55 | 342 | 7.0 | 17.0 | 0.00 | 0.10 | 0.10 | 69 | 820.9 |
| 20260505003620 | 56 | 348 | 3.0 | 11.0 | 0.00 | 0.10 | 0.10 | 68 | 821.0 |
| 20260505003348 | 56 | 9 | 3.0 | 4.0 | 0.00 | 0.10 | 0.10 | 69 | 820.8 |
| 20260505002028 | 56 | 344 | 3.0 | 4.0 | 0.00 | 0.10 | 0.10 | 70 | 820.8 |
| 20260505001501 | 56 | 333 | 2.0 | 4.0 | 0.00 | 0.10 | 0.10 | 68 | 820.7 |
| 20260505000930 | 56 | 333 | 2.0 | 4.0 | 0.00 | 0.10 | 0.10 | 68 | 820.6 |
| 20260505000400 | 56 | 333 | 2.0 | 3.0 | 0.00 | 0.10 | 0.10 | 69 | 820.5 |
| 20260504234857 | 55 | 15 | 0.0 | 2.0 | 0.00 | 0.10 | 0.10 | 71 | 820.6 |
| 20260504234345 | 55 | 15 | 0.0 | 2.0 | 0.01 | 0.10 | 0.10 | 71 | 820.6 |
| 20260504233842 | 55 | 15 | 1.0 | 2.0 | 0.01 | 0.10 | 0.10 | 72 | 820.5 |
| 20260504233341 | 55 | 15 | 1.0 | 2.0 | 0.02 | 0.10 | 0.10 | 73 | 820.5 |
| 20260504232838 | 54 | 15 | 1.0 | 2.0 | 0.03 | 0.10 | 0.10 | 74 | 820.6 |
| 20260504232335 | 54 | 15 | 1.0 | 4.0 | 0.03 | 0.10 | 0.10 | 76 | 820.5 |
| 20260504231835 | 54 | 15 | 3.0 | 5.0 | 0.03 | 0.10 | 0.10 | 76 | 820.4 |
| 20260504231328 | 54 | 15 | 3.0 | 6.0 | 0.03 | 0.10 | 0.10 | 76 | 820.4 |
| 20260504230826 | 54 | 26 | 3.0 | 7.0 | 0.03 | 0.10 | 0.10 | 79 | 820.6 |
| 20260504230325 | 54 | 282 | 4.0 | 7.0 | 0.03 | 0.10 | 0.10 | 74 | 820.4 |
| 20260504225814 | 54 | 282 | 5.0 | 11.0 | 0.03 | 0.10 | 0.10 | 74 | 820.2 |
| 20260504225312 | 54 | 252 | 5.0 | 11.0 | 0.03 | 0.10 | 0.10 | 72 | 820.5 |
| 20260504224810 | 55 | 267 | 6.0 | 13.0 | 0.03 | 0.10 | 0.10 | 72 | 820.4 |
| 20260504224313 | 56 | 272 | 6.0 | 13.0 | 0.02 | 0.09 | 0.09 | 68 | 820.7 |
| 20260504223748 | 57 | 284 | 3.0 | 11.0 | 0.02 | 0.09 | 0.09 | 65 | 820.6 |
| 20260504223251 | 58 | 310 | 1.0 | 4.0 | 0.01 | 0.08 | 0.08 | 66 | 820.7 |
| 20260504222726 | 58 | 306 | 1.0 | 5.0 | 0.00 | 0.07 | 0.07 | 54 | 820.6 |
| 20260504222159 | 58 | 306 | 1.0 | 5.0 | 0.00 | 0.07 | 0.07 | 53 | 820.4 |
| 20260504221633 | 58 | 65 | 3.0 | 10.0 | 0.00 | 0.07 | 0.07 | 54 | 820.4 |
| 20260504221130 | 59 | 65 | 7.0 | 11.0 | 0.00 | 0.07 | 0.07 | 53 | 820.0 |
| 20260504220606 | 59 | 35 | 7.0 | 13.0 | 0.00 | 0.07 | 0.07 | 54 | 819.8 |
| 20260504220046 | 59 | 24 | 6.0 | 13.0 | 0.00 | 0.07 | 0.07 | 55 | 819.5 |
| 20260504215542 | 59 | 40 | 7.0 | 11.0 | 0.00 | 0.07 | 0.07 | 57 | 819.4 |
| 20260504215039 | 58 | 48 | 8.0 | 13.0 | 0.00 | 0.07 | 0.07 | 57 | 819.4 |
| 20260504214537 | 58 | 48 | 9.0 | 13.0 | 0.00 | 0.07 | 0.07 | 59 | 819.4 |
| 20260504214038 | 58 | 51 | 9.0 | 16.0 | 0.01 | 0.07 | 0.07 | 58 | 819.5 |
| 20260504213530 | 58 | 65 | 9.0 | 16.0 | 0.02 | 0.07 | 0.07 | 60 | 819.6 |
| 20260504213030 | 58 | 69 | 10.0 | 16.0 | 0.05 | 0.07 | 0.07 | 58 | 819.8 |
| 20260504212528 | 58 | 62 | 13.0 | 22.0 | 0.07 | 0.07 | 0.07 | 60 | 819.9 |
| 20260504212249 | 59 | 32 | 14.0 | 22.0 | 0.07 | 0.07 | 0.07 | 58 | 819.9 |
| 20260504211027 | 57 | 60 | 11.0 | 19.0 | 0.07 | 0.07 | 0.07 | 66 | 820.2 |
| 20260504210528 | 56 | 94 | 11.0 | 17.0 | 0.07 | 0.07 | 0.07 | 65 | 820.2 |
| 20260504210025 | 56 | 83 | 11.0 | 15.0 | 0.07 | 0.07 | 0.07 | 67 | 820.2 |
| 20260504205523 | 56 | 88 | 10.0 | 17.0 | 0.07 | 0.07 | 0.07 | 64 | 820.2 |
| 20260504205025 | 56 | 71 | 9.0 | 16.0 | 0.07 | 0.07 | 0.07 | 64 | 820.0 |
| 20260504204524 | 56 | 69 | 12.0 | 22.0 | 0.07 | 0.07 | 0.07 | 60 | 820.1 |
| 20260504204256 | 57 | 66 | 12.0 | 22.0 | 0.06 | 0.06 | 0.06 | 55 | 820.0 |
| 20260504203504 | 59 | 52 | 11.0 | 18.0 | 0.05 | 0.05 | 0.05 | 53 | 819.9 |
| 20260504203233 | 62 | 5 | 12.0 | 18.0 | 0.01 | 0.01 | 0.01 | 51 | 819.7 |
| 20260504202502 | 65 | 348 | 10.0 | 17.0 | 0.00 | 0.00 | 0.00 | 43 | 819.5 |
| 20260504202227 | 67 | 335 | 9.0 | 15.0 | 0.00 | 0.00 | 0.00 | 34 | 819.3 |
| 20260504201503 | 67 | 330 | 9.0 | 15.0 | 0.00 | 0.00 | 0.00 | 34 | 819.1 |
| 20260504200943 | 68 | 337 | 8.0 | 13.0 | 0.00 | 0.00 | 0.00 | 34 | 819.0 |
| 20260504195941 | 69 | 339 | 9.0 | 18.0 | 0.00 | 0.00 | 0.00 | 33 | 818.7 |
| 20260504195441 | 69 | 10 | 12.0 | 18.0 | 0.00 | 0.00 | 0.00 | 33 | 818.7 |
| 20260504194942 | 69 | 40 | 13.0 | 21.0 | 0.00 | 0.00 | 0.00 | 33 | 818.6 |
| 20260504194431 | 69 | 42 | 12.0 | 21.0 | 0.00 | 0.00 | 0.00 | 34 | 818.4 |
| 20260504194146 | 69 | 348 | 12.0 | 21.0 | 0.00 | 0.00 | 0.00 | 34 | 818.5 |
| 20260504193428 | 69 | 343 | 13.0 | 21.0 | 0.00 | 0.00 | 0.00 | 33 | 818.8 |
| 20260504192928 | 70 | 15 | 13.0 | 19.0 | 0.00 | 0.00 | 0.00 | 33 | 818.7 |
| 20260504192428 | 71 | 32 | 11.0 | 17.0 | 0.00 | 0.00 | 0.00 | 32 | 818.8 |
| 20260504191927 | 71 | 335 | 9.0 | 17.0 | 0.00 | 0.00 | 0.00 | 31 | 818.9 |
| 20260504191416 | 71 | 312 | 10.0 | 15.0 | 0.00 | 0.00 | 0.00 | 32 | 818.9 |
| 20260504190913 | 70 | 306 | 10.0 | 18.0 | 0.00 | 0.00 | 0.00 | 32 | 819.0 |
| 20260504190414 | 70 | 332 | 10.0 | 18.0 | 0.00 | 0.00 | 0.00 | 33 | 819.0 |
| 20260504185917 | 69 | 0 | 10.0 | 16.0 | 0.00 | 0.00 | 0.00 | 33 | 819.1 |
| 20260504185353 | 69 | 261 | 10.0 | 16.0 | 0.00 | 0.00 | 0.00 | 33 | 819.2 |
| 20260504184824 | 69 | 292 | 10.0 | 16.0 | 0.00 | 0.00 | 0.00 | 34 | 819.2 |
| 20260504184255 | 68 | 293 | 11.0 | 16.0 | 0.00 | 0.00 | 0.00 | 34 | 819.2 |
| 20260504183726 | 68 | 293 | 11.0 | 16.0 | 0.00 | 0.00 | 0.00 | 33 | 819.3 |
| 20260504183216 | 68 | 223 | 10.0 | 15.0 | 0.00 | 0.00 | 0.00 | 34 | 819.4 |
| 20260504182909 | 68 | 257 | 8.0 | 15.0 | 0.00 | 0.00 | 0.00 | 34 | 819.4 |
| 20260504182131 | 67 | 284 | 9.0 | 17.0 | 0.00 | 0.00 | 0.00 | 34 | 819.4 |
| 20260504181633 | 67 | 284 | 11.0 | 17.0 | 0.00 | 0.00 | 0.00 | 34 | 819.6 |
| 20260504181108 | 67 | 309 | 11.0 | 19.0 | 0.00 | 0.00 | 0.00 | 35 | 819.6 |
| 20260504180611 | 66 | 240 | 11.0 | 19.0 | 0.00 | 0.00 | 0.00 | 36 | 819.6 |
| 20260504180045 | 66 | 242 | 12.0 | 18.0 | 0.00 | 0.00 | 0.00 | 36 | 819.7 |
| 20260504175734 | 65 | 271 | 11.0 | 20.0 | 0.00 | 0.00 | 0.00 | 36 | 819.9 |
| 20260504174958 | 65 | 271 | 11.0 | 20.0 | 0.00 | 0.00 | 0.00 | 36 | 820.0 |
| 20260504174502 | 65 | 257 | 13.0 | 19.0 | 0.00 | 0.00 | 0.00 | 37 | 820.1 |
| 20260504173933 | 65 | 232 | 12.0 | 20.0 | 0.00 | 0.00 | 0.00 | 37 | 820.2 |
| 20260504173405 | 64 | 252 | 11.0 | 21.0 | 0.00 | 0.00 | 0.00 | 37 | 820.3 |
| 20260504173100 | 64 | 232 | 11.0 | 21.0 | 0.00 | 0.00 | 0.00 | 37 | 820.2 |
| 20260504172325 | 64 | 263 | 10.0 | 22.0 | 0.00 | 0.00 | 0.00 | 37 | 820.3 |
| 20260504171254 | 64 | 265 | 14.0 | 22.0 | 0.00 | 0.00 | 0.00 | 37 | 820.5 |
| 20260504170727 | 63 | 272 | 16.0 | 25.0 | 0.00 | 0.00 | 0.00 | 37 | 820.4 |
| 20260504170159 | 63 | 290 | 16.0 | 25.0 | 0.00 | 0.00 | 0.00 | 37 | 820.3 |
| 20260504160110 | 63 | 288 | 8.0 | 21.0 | 0.00 | 0.00 | 0.00 | 37 | 820.4 |
| 20260504150958 | 63 | 290 | 13.0 | 22.0 | 0.00 | 0.00 | 0.00 | 35 | 820.4 |
| 20260504150425 | 63 | 280 | 13.0 | 22.0 | 0.00 | 0.00 | 0.00 | 35 | 820.5 |
| 20260504141052 | 63 | 249 | 8.0 | 15.0 | 0.00 | 0.00 | 0.00 | 34 | 820.5 |
| 20260504140551 | 62 | 254 | 8.0 | 15.0 | 0.00 | 0.00 | 0.00 | 34 | 820.5 |
| 20260504130805 | 61 | 0 | 11.0 | 20.0 | 0.00 | 0.00 | 0.00 | 34 | 820.3 |
| 20260504110321 | 47 | 0 | 2.0 | 4.0 | 0.00 | 0.00 | 0.00 | 47 | 820.4 |
| 20260504100452 | 47 | 0 | 2.0 | 4.0 | 0.00 | 0.00 | 0.00 | 47 | 820.5 |
| 20260504081643 | 50 | 0 | 1.0 | 3.0 | 0.00 | 0.00 | 0.00 | 43 | 821.1 |
| 20260504081141 | 50 | 0 | 1.0 | 4.0 | 0.00 | 0.00 | 0.00 | 43 | 821.2 |
| 20260504080640 | 50 | 0 | 1.0 | 4.0 | 0.00 | 0.00 | 0.00 | 43 | 821.1 |
| 20260504080142 | 50 | 0 | 2.0 | 4.0 | 0.00 | 0.00 | 0.00 | 43 | 821.3 |
| 20260504050453 | 58 | 26 | 6.0 | 10.0 | 0.00 | 0.00 | 0.00 | 36 | 822.1 |
| 20260504045949 | 59 | 13 | 6.0 | 10.0 | 0.00 | 0.00 | 0.00 | 35 | 822.1 |
| 20260504045709 | 60 | 25 | 5.0 | 10.0 | 0.00 | 0.00 | 0.00 | 34 | 821.9 |
| 20260504044950 | 61 | 98 | 4.0 | 10.0 | 0.00 | 0.00 | 0.00 | 32 | 821.9 |
| 20260504044450 | 61 | 260 | 5.0 | 9.0 | 0.00 | 0.00 | 0.00 | 32 | 821.8 |
| 20260504043449 | 62 | 275 | 3.0 | 7.0 | 0.00 | 0.00 | 0.00 | 32 | 821.8 |
| 20260504042949 | 62 | 257 | 4.0 | 7.0 | 0.00 | 0.00 | 0.00 | 33 | 821.8 |
| 20260504042448 | 62 | 223 | 5.0 | 8.0 | 0.00 | 0.00 | 0.00 | 33 | 821.8 |
| 20260504041947 | 62 | 240 | 5.0 | 8.0 | 0.00 | 0.00 | 0.00 | 32 | 821.8 |
| 20260504041448 | 62 | 244 | 4.0 | 8.0 | 0.00 | 0.00 | 0.00 | 33 | 821.8 |
| 20260504040946 | 62 | 236 | 4.0 | 7.0 | 0.00 | 0.00 | 0.00 | 33 | 821.9 |
| 20260504040450 | 62 | 242 | 5.0 | 7.0 | 0.00 | 0.00 | 0.00 | 33 | 821.9 |
| 20260504035925 | 62 | 247 | 5.0 | 7.0 | 0.00 | 0.00 | 0.00 | 33 | 821.9 |
| 20260504035354 | 62 | 256 | 5.0 | 9.0 | 0.00 | 0.00 | 0.00 | 33 | 821.9 |
| 20260504034822 | 62 | 241 | 4.0 | 9.0 | 0.00 | 0.00 | 0.00 | 33 | 821.9 |
| 20260504034251 | 62 | 238 | 5.0 | 8.0 | 0.00 | 0.00 | 0.00 | 33 | 822.0 |
| 20260504033755 | 62 | 242 | 5.0 | 8.0 | 0.00 | 0.00 | 0.00 | 33 | 822.1 |
| 20260504033230 | 62 | 234 | 5.0 | 8.0 | 0.00 | 0.00 | 0.00 | 33 | 822.1 |
| 20260504032728 | 62 | 232 | 5.0 | 8.0 | 0.00 | 0.00 | 0.00 | 34 | 822.0 |
| 20260504032227 | 62 | 240 | 5.0 | 7.0 | 0.00 | 0.00 | 0.00 | 34 | 822.1 |
| 20260504031716 | 62 | 246 | 4.0 | 6.0 | 0.00 | 0.00 | 0.00 | 34 | 822.0 |
| 20260504031414 | 62 | 254 | 4.0 | 6.0 | 0.00 | 0.00 | 0.00 | 33 | 822.0 |
| 20260504030652 | 62 | 254 | 4.0 | 6.0 | 0.00 | 0.00 | 0.00 | 33 | 822.0 |
| 20260504030122 | 62 | 245 | 4.0 | 8.0 | 0.00 | 0.00 | 0.00 | 33 | 822.0 |
| 20260504025812 | 62 | 246 | 4.0 | 8.0 | 0.00 | 0.00 | 0.00 | 33 | 822.0 |
| 20260504025240 | 63 | 259 | 4.0 | 6.0 | 0.00 | 0.00 | 0.00 | 32 | 821.9 |
| 20260504023920 | 64 | 246 | 5.0 | 8.0 | 0.00 | 0.00 | 0.00 | 31 | 821.9 |
| 20260504023357 | 64 | 243 | 5.0 | 8.0 | 0.00 | 0.00 | 0.00 | 31 | 821.7 |
| 20260504022859 | 65 | 240 | 5.0 | 8.0 | 0.00 | 0.00 | 0.00 | 31 | 821.7 |
| 20260504022613 | 65 | 242 | 6.0 | 9.0 | 0.00 | 0.00 | 0.00 | 31 | 821.7 |